Location: Ch?enovice
(49.7164°N, 15.2160°E)
Time: 20:26:31
(UTC+00:00)

IDEFIX/ARIANE 42P - Pass Details

Date: 23 May 2024
Orbit: 783 x 799 km, 98.5° (Epoch: 20 June)

Event Time Altitude Azimuth Distance (km) Brightness Sun altitude
Rises 01:16:55 0° 12° (NNE) 3,318 7.2 -13.0°
Reaches altitude 10° 01:19:16 10° 9° (N) 2,384 6.2 -12.8°
Maximum altitude 01:24:28 63° 290° (WNW) 891 2.8 -12.3°
Enters shadow 01:28:35 16° 212° (SSW) 1,964 3.9 -11.9°
